Regional Weather Roundup
Issued by NWS

Current Version | Previous Version | Text Only | Print | Product List | Glossary On
Versions: 1 2 3 4 5 6 7 8 9 10 11 12 13 14 15 16 17 18 19 20 21 22 23 24 25 26 27 28 29 30 31 32 33 34 35 36 37 38 39 40 41 42 43 44 45 46 47 48 49 50
346
ASHW40 PHFO 060043
RWRHI

WEATHER ROUNDUP FOR HAWAII
NATIONAL WEATHER SERVICE HONOLULU HI
200 PM HST FRI FEB 05 2016

THIS IS AN AUTOMATED REPORT THAT HAS NOT BEEN QUALITY CONTROLLED.

NOTE..."FAIR" INDICATES FEW OR NO CLOUDS BELOW 12,000 FEET WITH NO
SIGNIFICANT WEATHER AND/OR OBSTRUCTIONS TO VISIBILITY.

* - THESE SITES REPORT LIMITED FIELDS

HIZ001>004-060100-
KAUAI-NIIHAU-

CITY           SKY/WX    TMP DP  RH WIND       PRES   REMARKS
LIHUE APT      SUNNY     81  64  56 S16       29.98F
PORT ALLEN*      N/A     84 N/A N/A W9          N/A
POIPU*           N/A     82 N/A N/A SW7         N/A
PRINCEVILLE*     N/A     79 N/A N/A N5          N/A
KOKOLE POINT*  NOT AVBL
MOLOAA DAIRY*    N/A     81  66  61 NE2         N/A
WAIMEA HTS*      N/A     84  61  45 SW10        N/A
PUU OPAE*        N/A     75  55  50 S8          N/A
PUU LUA*       NOT AVBL
MAKAHA RIDGE*    N/A     79  59  50 SW6G16      N/A
$$

HIZ005>011-060100-
OAHU-

CITY           SKY/WX    TMP DP  RH WIND       PRES   REMARKS
HONOLULU       PTSUNNY   81  69  67 S7        29.96F
KALAELOA       MOSUNNY   82  68  62 S7        29.98F
KANEOHE MCB    CLOUDY    79  70  74 NE7       29.95F
WHEELER FIELD  PTSUNNY   79  65  62 N10       29.97F
BELLOWS*         N/A    N/A N/A N/A NE6         N/A
KAHUKU*          N/A    N/A N/A N/A VRB6G12     N/A
WHEELER*         N/A    N/A N/A N/A NW8G14      N/A
WAIANAE HARBOR   N/A    N/A N/A N/A W12         N/A
DILLINGHAM*      N/A     82  64  54 MISG        N/A
KAHUKU TRN*      N/A     79  68  69 E3G13       N/A
KAWAILOA*        N/A     82  66  57 W7G14       N/A
KII*             N/A     79  70  73 E9          N/A
MAKUA RANGE*     N/A     81  64  57 NW6         N/A
OAHU FOREST NW NOT AVBL
SCHOFIELD BRK*   N/A     79  64  61 CALM        N/A
SCHOFIELD S*   NOT AVBL
WAIANAE VLY*   NOT AVBL
KUAOKALA*      NOT AVBL
HONOULIUULI*   NOT AVBL
MOKUOLOE IS*   NOT AVBL
PALEHUA*       NOT AVBL
WAIAWA PHB*    NOT AVBL
$$

HIZ012>013-060100-
MOLOKAI-

CITY           SKY/WX    TMP DP  RH WIND       PRES   REMARKS
MOLOKAI AIRPT  MOSUNNY   83  65  54 N9        29.98F
KALAUPAPA      NOT AVBL
MAKAPULAPAI*     N/A     82  68  61 E12G17      N/A
MOLOKAI 1*     NOT AVBL
PUU ALII*        N/A     66  60  82 W1          N/A
$$

HIZ016-060100-
KAHOOLAWE-

CITY           SKY/WX    TMP DP  RH WIND       PRES   REMARKS
KAHOOLAWE*       N/A     75 N/A N/A NW1         N/A
HAKIOAWA*        N/A     79  67  67 MISG      30.38F
HONOKANAIA*      N/A     84  69  59 W10       29.91F
KANELOA*         N/A     79  64  61 NW12G21   30.04F
KEALIALALO*      N/A     79  66  65 N9G18     29.96F
LUA MAKIKA*    NOT AVBL
$$

HIZ014>015-060100-
LANAI-

CITY           SKY/WX    TMP DP  RH WIND       PRES   REMARKS
LANAI CITY     FAIR      78  61  55 NW13      30.01F
LANAI 1*       NOT AVBL
$$

HIZ017>028-060100-
MAUI-

CITY           SKY/WX    TMP DP  RH WIND       PRES   REMARKS
KAHULUI        MOSUNNY   85  66  53 NE7       29.94F
KAPALUA-W MAUI MOSUNNY   81  66  61 N14       29.96
HANA AIRPORT   PTSUNNY   75  32  20 E7        29.96F
HANA*            N/A     81 N/A N/A SE8G15      N/A
HALEAKALA SUMM   N/A     61  32  33 NW3         N/A
MAALAEA BAY*     N/A     84 N/A N/A SE5G12      N/A
HALEAKALA*     NOT AVBL
KAUPO GAP*       N/A     72  66  83 S3G13       N/A
KULA 1*          N/A     63  49  60 NW8         N/A
$$

HIZ023>026-060100-
BIG ISLAND OF HAWAII COAST AND LOWER SLOPES-

CITY           SKY/WX    TMP DP  RH WIND       PRES   REMARKS
KAILUA KONA    SUNNY     81  68  64 SW8       29.95F
HILO           CLOUDY    79  70  73 SE10      29.95F
HONOKAA*         N/A     81 N/A N/A VRB1        N/A
KAWAIHAE MWT*    N/A     82 N/A N/A W5          N/A
KAWAIHAE*        N/A     79 N/A N/A SW3       29.94F
SOUTH POINT*     N/A     70 N/A N/A N12         N/A
UPOLU AIRPORT*   N/A    N/A N/A N/A SW7G17      N/A
KAMUELA*       PTCLDY    75  57  53 W9        30.05F
HAKALAU*         N/A     63  56  78 S8G16       N/A
KALOKO-HONOKO*   N/A     82  66  57 W7        29.94F
PALI 2*          N/A     64  64 100 SE12G18     N/A
KEALAKOMO*       N/A     82  70  65 E9          N/A
KAUPULEHU*       N/A     82  59  44 NW8G16      N/A
KAPAPALA*        N/A     70  67  90 NW5         N/A
LOWER KAHUKU*    N/A     64 -38   1 NE3G12      N/A
PUHE CS*         N/A     82  64  54 SW3         N/A
PUHO CS*         N/A     83  62  48 W3          N/A
PTA KEAMUKU*     N/A     70  55  60 CALM        N/A
WAIKOLOA*        N/A     82  57  42 W12G18      N/A
$$

HIZ027>028-060100-
BIG ISLAND OF HAWAII INTERIOR AND SUMMMITS-

CITY           SKY/WX    TMP DP  RH WIND       PRES   REMARKS
BRADSHAW FIELD MOSUNNY   67  52  59 W10       30.26F
MK VISITOR CEN   N/A     59  36  41 S6          N/A
MAUNA KEA*       N/A     48   1  14 S6          N/A
MAUNA LOA*       N/A     54  34  47 MISG        N/A
MAUNA LOA 1*   NOT AVBL
PTA KIPUKA*      N/A     72  61  68 N7G17       N/A
PTA RANGE 17*    N/A     52  41  66 NW10G16     N/A
PTA WEST*        N/A     72  61  68 NW8G14      N/A
NENE CABIN*      N/A     55  55 100 E8G15       N/A
AHUMOA*          N/A     54  53  95 W3          N/A
PTA PORTABLE*  NOT AVBL
PUU MALI*        N/A     55  52  88 NW7G13      N/A
$$

HIC003-060100-
NORTHWEST ISLANDS-

CITY           SKY/WX    TMP DP  RH WIND       PRES   REMARKS
MIDWAY ISLAND  SUNNY     70  46  43 NW9       30.13F
MIDWAY NOS*      N/A     66 N/A N/A MISG      30.10F
FRENCH FRIGATE NOT AVBL
$$

PHZ110>124-180-060100-
BUOY REPORTS

STATION/POSITION TIME  TEMP    WIND        PRES    WAVE   SWELL
                       AIR SEA DIR/SP/G            HT/PER HT/DIR
                 (UTC) (F)     (DEG/KT/KT) (MB)    (FT/S) (FT/D)
BUOY 51001       0000   75 77  220/ 12/ 16 1015.0F
BUOY 51101       2350   75 77  220/ 14/ 16 1015.1F   7/10   7/340
BUOY 51100       NOT AVBL
BUOY 51002       2250   77 78  110/ 14/ 16 1013.8    7/10   5/180
BUOY 51003       2350   77 79   20/  6/  8 1014.6F   5/11   5/330
BUOY 51004       2350   75 78   80/ 14/ 17 1013.7F   8/ 9   7/100
BARBERS PT BUOY  NOT AVBL
WAIMEA BAY BUOY  0004      79                N/A     5/13   3/310
KAILUA BAY BUOY  0011      78                N/A     4/12   2/340
LANAI BUOY       NOT AVBL
BARBERS PT 2     0003      79                N/A     4/12   2/310
PAUWELA MAUI     0007      76                N/A     6/10   2/330
HILO             NOT AVBL
KANEOHE BAY BUOY 0006      77                N/A     4/12   2
HANALEI KAUAI    0001      78                N/A     6/11   5/310
KAHULUI HARBOR   NOT AVBL
HONOLULU HARBOR  NOT AVBL
KILO NALU        NOT AVBL
HILO HARBOR      NOT AVBL
MOKUOLOE         NOT AVBL
NAWILIWILI       NOT AVBL
WHOTS BUOY       NOT AVBL
BUOY 51028       NOT AVBL
$$

......................KEY........................................
  SKY/WX - SKY CONDITIONS/PRESENT WEATHER
  TMP    - TEMPERATURE IN FAHRENHEIT
  DWPT   - DEWPOINT IN FAHRENHEIT
  RH     - RELATIVE HUMIDITY IN PERCENT
  WIND   - DIRECTION AND SPEED /MPH FOR ISLANDS...KTS FOR BUOYS/
  PRES   - MEAN SEA LEVEL PRESSURE IN INCHES OF HG
  VSB    - VISIBILITY IN MILES
  HX     - HEAT INDEX
  WCI    - WIND CHILL INDEX
  VRB    - VARIABLE WIND DIRECTION
  N/A    - NOT AVAILABLE




USA.gov is the U.S. government's official web portal to all federal, state and local government web resources and services.